Home > Weather > St. Peter Port > Past weeks

Flag for Guernsey Weather for the Past 2 Weeks in St. Peter Port, Guernsey

Now
48 °F

Passing clouds.


Feels Like: 42 °F
Forecast: 45 / 55 °F
Wind: 16 mph from West

Location: Guernsey Airport

Current Time: May 2, 2016 at 10:26:13 PM

Latest Report: May 2, 2016 at 9:20 PM


Visibility: N/A

Pressure: 30.21 "Hg

Humidity: 94%

Dew Point: 46 °F

Location of St. Peter PortLocation

Historic Weather in St. Peter Port — Graph

°F

St. Peter Port Temperature Yesterday

Maximum temperature yesterday: 54 °F (at 12:20 PM)
Minimum temperature yesterday: 43 °F (at 4:20 AM)
Average temperature yesterday: 50 °F

High & Low Weather Summary for the Past Weeks

 TemperatureHumidityPressure
High57 °F (Apr 21, 2:50 PM)100% (Apr 19, 5:20 AM)30.42 "Hg (Apr 19, 5:20 AM)
Low39 °F (Apr 26, 8:20 PM)43% (Apr 26, 12:20 PM)29.83 "Hg (Apr 26, 3:50 AM)
Average48 °F75%30.12 "Hg
* Reported Apr 18 3:50 AM — May 2 9:20 PM, St. Peter Port, Weather by CustomWeather, © 2016

Note: Actual official high and low records may vary slightly from our data, if they occured in-between our weather recording intervals... More about our weather records

Advertising

St. Peter Port Weather History for the Previous 24 Hours

Scroll right to see more
 ConditionsComfort  
Time TempWeatherWind HumidityBarometerVisibility
9:20 PM
Mon, May 2
48 °FPassing clouds.16 mph94%30.21 "HgN/A
8:50 PM48 °FPassing clouds.14 mph94%30.21 "HgN/A
8:20 PM48 °FPassing clouds.14 mph94%30.21 "HgN/A
7:50 PM50 °FPassing clouds.17 mph94%30.21 "HgN/A
7:20 PM48 °FPartly sunny.15 mph100%30.18 "HgN/A
6:50 PM48 °FPartly sunny.14 mph100%30.18 "HgN/A
6:20 PM48 °FLight rain. Partly sunny.15 mph100%30.18 "HgN/A
5:50 PM50 °FDrizzle. Partly sunny.17 mph100%30.18 "Hg3 mi
5:20 PM52 °FLight rain. Partly sunny.20 mph100%30.15 "Hg4 mi
4:50 PM54 °FLight rain. Partly sunny.23 mph94%30.18 "HgN/A
4:20 PM54 °FScattered showers. Partly sunny.23 mph88%30.18 "HgN/A
3:50 PM54 °FPassing clouds.23 mph88%30.18 "HgN/A
3:20 PM54 °FPassing clouds.18 mph94%30.18 "HgN/A
2:50 PM55 °FPassing clouds.21 mph88%30.18 "HgN/A
2:20 PM55 °FPassing clouds.17 mph88%30.18 "HgN/A
1:50 PM55 °FPassing clouds.17 mph88%30.21 "HgN/A
1:20 PM55 °FPassing clouds.16 mph88%30.21 "HgN/A
12:50 PM55 °FPassing clouds.15 mph88%30.21 "HgN/A
12:20 PM57 °FPassing clouds.15 mph82%30.21 "HgN/A
11:50 AM54 °FScattered clouds.14 mph94%30.21 "HgN/A
11:20 AM54 °FPartly sunny.14 mph94%30.24 "HgN/A
10:50 AM52 °FPartly sunny.14 mph100%30.24 "Hg6 mi
10:20 AM50 °FPartly sunny.13 mph100%30.24 "Hg5 mi
9:50 AM52 °FBroken clouds.13 mph100%30.24 "Hg4 mi
9:20 AM50 °FBroken clouds.10 mph100%30.24 "Hg4 mi
8:50 AM50 °FDrizzle. Fog.12 mph100%30.24 "Hg1 mi
8:20 AM50 °FDrizzle. Fog.14 mph100%30.24 "Hg0 mi
7:20 AM50 °FDrizzle. Fog.14 mph100%30.24 "Hg1 mi
6:20 AM50 °FPartly cloudy.13 mph100%30.27 "Hg5 mi
5:50 AM50 °FPartly cloudy.12 mph100%30.27 "Hg5 mi
5:20 AM50 °FPartly cloudy.13 mph100%30.27 "Hg4 mi
4:50 AM50 °FDrizzle. Fog.12 mph100%30.27 "Hg3 mi
4:20 AM50 °FPassing clouds.10 mph100%30.27 "Hg5 mi
3:50 AM50 °FPassing clouds.12 mph100%30.27 "Hg5 mi
Weather by CustomWeather, © 2016

See weather overviewHow to use our weather pages